Meteo pe oră la Abashevo

Astăzi, 3 August, Marţi

Timp Temperatura Precipitaţii Vânt Presiune Umiditate
00:00 +25°C° 0 mm 4 m/s 740 mmHg 55%
01:00 +23°C° 0.1 mm 4 m/s 740 mmHg 59%
02:00 +22°C° 0.1 mm 4 m/s 740 mmHg 62%
03:00 +22°C° 0 mm 3 m/s 740 mmHg 66%
04:00 +22°C° 0 mm 3 m/s 740 mmHg 67%
05:00 +22°C° 0 mm 3 m/s 740 mmHg 68%
06:00 +23°C° 0 mm 2 m/s 740 mmHg 69%
07:00 +25°C° 0 mm 3 m/s 740 mmHg 62%
08:00 +27°C° 0 mm 3 m/s 741 mmHg 56%
09:00 +29°C° 0 mm 4 m/s 741 mmHg 52%
10:00 +29°C° 0 mm 4 m/s 741 mmHg 52%
11:00 +29°C° 0 mm 4 m/s 741 mmHg 53%
12:00 +29°C° 0 mm 4 m/s 742 mmHg 54%
13:00 +28°C° 0 mm 4 m/s 742 mmHg 59%
14:00 +27°C° 0 mm 4 m/s 742 mmHg 64%
15:00 +26°C° 0 mm 3 m/s 742 mmHg 69%
16:00 +25°C° 0.2 mm 4 m/s 742 mmHg 72%
17:00 +25°C° 0.2 mm 4 m/s 741 mmHg 74%
18:00 +25°C° 0.2 mm 4 m/s 741 mmHg 77%
19:00 +22°C° 0.4 mm 4 m/s 741 mmHg 82%
20:00 +21°C° 0.4 mm 3 m/s 742 mmHg 86%
21:00 +20°C° 0.4 mm 2 m/s 742 mmHg 91%
22:00 +19°C° 0 mm 2 m/s 742 mmHg 91%
23:00 +19°C° 0 mm 2 m/s 742 mmHg 91%

Mâine, 4 August, Miercuri

Timp Temperatura Precipitaţii Vânt Presiune Umiditate
00:00 +19°C° 0 mm 1 m/s 743 mmHg 91%
01:00 +19°C° 0 mm 1 m/s 743 mmHg 92%
02:00 +19°C° 0 mm 1 m/s 743 mmHg 93%
03:00 +18°C° 0 mm 2 m/s 743 mmHg 93%
04:00 +19°C° 0.4 mm 1 m/s 743 mmHg 93%
05:00 +19°C° 0.4 mm 1 m/s 743 mmHg 92%
06:00 +19°C° 0.4 mm 1 m/s 743 mmHg 91%
07:00 +19°C° 0.2 mm 2 m/s 744 mmHg 86%
08:00 +20°C° 0.2 mm 2 m/s 744 mmHg 81%
09:00 +20°C° 0.2 mm 3 m/s 744 mmHg 76%
10:00 +22°C° 0.1 mm 3 m/s 744 mmHg 67%
11:00 +24°C° 0.1 mm 3 m/s 744 mmHg 57%
12:00 +26°C° 0.1 mm 4 m/s 745 mmHg 48%
13:00 +26°C° 0 mm 4 m/s 745 mmHg 44%
14:00 +27°C° 0 mm 4 m/s 745 mmHg 41%
15:00 +27°C° 0 mm 4 m/s 745 mmHg 37%
16:00 +26°C° 0 mm 4 m/s 745 mmHg 41%
17:00 +26°C° 0 mm 4 m/s 745 mmHg 44%
18:00 +25°C° 0 mm 4 m/s 745 mmHg 48%
19:00 +24°C° 0 mm 3 m/s 745 mmHg 50%
20:00 +22°C° 0 mm 3 m/s 745 mmHg 53%
21:00 +20°C° 0 mm 2 m/s 746 mmHg 56%
22:00 +19°C° 0 mm 2 m/s 746 mmHg 58%
23:00 +19°C° 0 mm 2 m/s 746 mmHg 60%

Poimâine, 5 August, Joi

Timp Temperatura Precipitaţii Vânt Presiune Umiditate
00:00 +18°C° 0 mm 2 m/s 746 mmHg 63%
01:00 +17°C° 0 mm 2 m/s 746 mmHg 64%
02:00 +17°C° 0 mm 2 m/s 746 mmHg 65%
03:00 +16°C° 0 mm 2 m/s 746 mmHg 67%
04:00 +16°C° 0 mm 2 m/s 747 mmHg 67%
05:00 +17°C° 0 mm 2 m/s 747 mmHg 68%
06:00 +17°C° 0 mm 2 m/s 747 mmHg 68%
07:00 +19°C° 0 mm 2 m/s 747 mmHg 62%
08:00 +20°C° 0 mm 2 m/s 747 mmHg 56%
09:00 +23°C° 0 mm 2 m/s 747 mmHg 49%
10:00 +24°C° 0 mm 2 m/s 747 mmHg 45%
11:00 +25°C° 0 mm 2 m/s 747 mmHg 41%
12:00 +26°C° 0 mm 2 m/s 747 mmHg 37%
13:00 +27°C° 0 mm 1 m/s 747 mmHg 36%
14:00 +27°C° 0 mm 1 m/s 747 mmHg 35%
15:00 +27°C° 0 mm 1 m/s 747 mmHg 34%
16:00 +27°C° 0 mm 1 m/s 747 mmHg 38%
17:00 +26°C° 0 mm 1 m/s 747 mmHg 42%
18:00 +26°C° 0 mm 1 m/s 747 mmHg 45%
19:00 +25°C° 0 mm 1 m/s 747 mmHg 46%
20:00 +23°C° 0 mm 1 m/s 747 mmHg 47%
21:00 +21°C° 0 mm 2 m/s 747 mmHg 48%
22:00 +20°C° 0 mm 2 m/s 747 mmHg 50%
23:00 +20°C° 0 mm 2 m/s 747 mmHg 52%

6 August, Vineri

Timp Temperatura Precipitaţii Vânt Presiune Umiditate
00:00 +19°C° 0 mm 2 m/s 747 mmHg 54%
01:00 +19°C° 0 mm 2 m/s 747 mmHg 56%
02:00 +18°C° 0 mm 2 m/s 747 mmHg 58%
03:00 +18°C° 0 mm 3 m/s 747 mmHg 59%
04:00 +18°C° 0 mm 3 m/s 747 mmHg 61%
05:00 +18°C° 0 mm 3 m/s 747 mmHg 63%
06:00 +18°C° 0 mm 3 m/s 747 mmHg 65%
07:00 +19°C° 0 mm 3 m/s 747 mmHg 60%
08:00 +21°C° 0 mm 4 m/s 747 mmHg 54%
09:00 +23°C° 0 mm 4 m/s 747 mmHg 48%
10:00 +25°C° 0 mm 4 m/s 747 mmHg 45%
11:00 +26°C° 0 mm 4 m/s 746 mmHg 42%
12:00 +28°C° 0 mm 5 m/s 746 mmHg 39%
13:00 +28°C° 0 mm 4 m/s 746 mmHg 38%
14:00 +29°C° 0 mm 4 m/s 746 mmHg 37%
15:00 +29°C° 0 mm 3 m/s 746 mmHg 36%
16:00 +29°C° 0 mm 3 m/s 746 mmHg 40%
17:00 +28°C° 0 mm 3 m/s 745 mmHg 43%
18:00 +28°C° 0 mm 3 m/s 745 mmHg 47%
19:00 +26°C° 0 mm 3 m/s 745 mmHg 49%
20:00 +25°C° 0 mm 3 m/s 745 mmHg 52%
21:00 +22°C° 0 mm 3 m/s 745 mmHg 54%
22:00 +21°C° 0 mm 3 m/s 745 mmHg 55%
23:00 +21°C° 0 mm 4 m/s 745 mmHg 55%

7 August, Sâmbătă

Timp Temperatura Precipitaţii Vânt Presiune Umiditate
00:00 +20°C° 0 mm 4 m/s 745 mmHg 56%
01:00 +20°C° 0 mm 4 m/s 745 mmHg 55%
02:00 +20°C° 0 mm 4 m/s 745 mmHg 53%
03:00 +19°C° 0 mm 4 m/s 745 mmHg 52%
04:00 +19°C° 0 mm 4 m/s 745 mmHg 52%
05:00 +19°C° 0 mm 4 m/s 745 mmHg 53%
06:00 +19°C° 0 mm 4 m/s 745 mmHg 53%
07:00 +21°C° 0 mm 4 m/s 746 mmHg 48%
08:00 +23°C° 0 mm 5 m/s 746 mmHg 44%
09:00 +26°C° 0 mm 5 m/s 746 mmHg 40%
10:00 +27°C° 0 mm 5 m/s 746 mmHg 37%
11:00 +28°C° 0 mm 5 m/s 746 mmHg 35%
12:00 +30°C° 0 mm 5 m/s 746 mmHg 33%
13:00 +30°C° 0 mm 5 m/s 746 mmHg 32%
14:00 +30°C° 0 mm 5 m/s 746 mmHg 31%
15:00 +32°C° 0 mm 5 m/s 745 mmHg 30%
16:00 +30°C° 0 mm 4 m/s 745 mmHg 34%
17:00 +29°C° 0 mm 3 m/s 745 mmHg 38%
18:00 +29°C° 0 mm 3 m/s 745 mmHg 42%
19:00 +27°C° 0 mm 3 m/s 745 mmHg 44%
20:00 +25°C° 0 mm 3 m/s 745 mmHg 47%
21:00 +22°C° 0 mm 3 m/s 746 mmHg 49%
22:00 +21°C° 0 mm 3 m/s 746 mmHg 50%
23:00 +21°C° 0 mm 3 m/s 746 mmHg 51%

8 August, Duminică

Timp Temperatura Precipitaţii Vânt Presiune Umiditate
00:00 +20°C° 0 mm 3 m/s 746 mmHg 52%
01:00 +20°C° 0 mm 3 m/s 746 mmHg 51%
02:00 +20°C° 0 mm 3 m/s 746 mmHg 49%
03:00 +20°C° 0 mm 3 m/s 746 mmHg 47%
04:00 +20°C° 0 mm 3 m/s 746 mmHg 48%
05:00 +20°C° 0 mm 3 m/s 746 mmHg 49%
06:00 +20°C° 0 mm 3 m/s 746 mmHg 50%
07:00 +22°C° 0 mm 4 m/s 746 mmHg 46%
08:00 +25°C° 0 mm 4 m/s 746 mmHg 42%
09:00 +27°C° 0 mm 5 m/s 746 mmHg 38%
10:00 +28°C° 0 mm 5 m/s 746 mmHg 36%
11:00 +30°C° 0 mm 5 m/s 746 mmHg 33%
12:00 +32°C° 0 mm 5 m/s 746 mmHg 31%
13:00 +32°C° 0 mm 5 m/s 746 mmHg 30%
14:00 +33°C° 0 mm 5 m/s 746 mmHg 29%
15:00 +34°C° 0 mm 5 m/s 746 mmHg 29%
16:00 +31°C° 0 mm 3 m/s 746 mmHg 33%
17:00 +30°C° 0 mm 2 m/s 746 mmHg 38%
18:00 +29°C° 0 mm 1 m/s 746 mmHg 43%
19:00 +28°C° 0 mm 2 m/s 746 mmHg 43%
20:00 +27°C° 0 mm 2 m/s 746 mmHg 44%
21:00 +26°C° 0 mm 3 m/s 746 mmHg 44%
22:00 +26°C° 0 mm 3 m/s 746 mmHg 44%
23:00 +26°C° 0 mm 2 m/s 746 mmHg 44%
Arată mai mult

Formular de consimțământ

Meteoprog și furnizorii noștri de servicii pot stoca și accesa date personale, precum cookies, identificatori de dispozitiv sau alte tehnologii similare pe dispozitivul dumneavoastră și procesa astfel de date pentru a personaliza conținutul și reclamele, dar și pentru a oferi caracteristici de social media și pentru a analiza traficul.

  • Stocarea și/sau accesarea informațiilor pe dispozitivul dumneavoastră

    Cookies, identificatori de dispozitiv sau alte informații pot fi stocate sau accesate pe dispozitiv în scopurile indicate mai sus.

  • Reclame și conținut personalizat, evaluarea reclamelor și a conținutului, informații despre audiențe și dezvoltarea produselor

    Reclamele și conținutul pot fi personalizate pe baza unui profil. Pot fi adăugate date suplimentare pentru a personaliza mai bine reclamele și conținutul. Performanța reclamelor și conținutului poate fi măsurată. Pot fi obținute informații despre utilizatorii care au văzut reclamele și conținutul. Aceste date pot fi utilizate pentru a dezvolta sau îmbunătăți experiența utilizatorilor, sistemele și software-ul.

Dând clic pe ‘Sunt de acord’, permiteți utilizarea cookie-urilor menționate, a identificatorilor de dispozitiv, balizelor web sau altor tehnologii similare. Setările pot fi modificate din browser-ul dispozitivului dumneavoastră.

În anumite scopuri, interesele legitime pot prima asupra consimțământului. Puteți citi mai multe informații în acest sens în Politica privind Confidențialitatea Datelor și Cookie.